Flag for USA Weather for the Past 2 Weeks in Warminster Township, Pennsylvania, USA

Now
49 °F

Fog.


Feels Like: 49 °F
Forecast: 48 / 53 °F
Wind: No wind

Location: Doylestown Airport

Current Time: May 4, 2016 at 11:34:56 AM

Latest Report: May 4, 2016 at 10:54 AM


Visibility: 5 mi

Pressure: 29.76 "Hg

Humidity: 97%

Dew Point: 48 °F

Location of Warminster TownshipLocation

Historic Weather in Warminster Township — Graph

°F

Warminster Township Temperature Yesterday

Maximum temperature yesterday: 55 °F (at 12:02 AM)
Minimum temperature yesterday: 50 °F (at 10:54 PM)
Average temperature yesterday: 53 °F

High & Low Weather Summary for the Past Weeks

 TemperatureHumidityPressure
High80 °F (Apr 26, 1:54 PM)100% (Apr 28, 2:54 AM)30.28 "Hg (Apr 28, 2:54 AM)
Low39 °F (Apr 21, 5:54 AM)13% (Apr 20, 5:54 PM)29.59 "Hg (Apr 26, 1:54 PM)
Average54 °F67%29.99 "Hg
* Reported Apr 19 9:54 AM — May 4 9:54 AM, Warminster Township, Weather by CustomWeather, © 2016

Note: Actual official high and low records may vary slightly from our data, if they occured in-between our weather recording intervals... More about our weather records

Advertising

Warminster Township Weather History for the Previous 24 Hours

Scroll right to see more
 ConditionsComfort  
Time TempWeatherWind HumidityBarometerVisibility
9:54 AM
Wed, May 4
48 °FLow clouds.3 mph96%29.77 "Hg10 mi
8:54 AM48 °FLow clouds.No wind96%29.76 "Hg10 mi
7:54 AM47 °FLight rain. Low clouds.No wind100%29.75 "Hg10 mi
6:54 AM47 °FLight rain. Low clouds.3 mph100%29.77 "Hg10 mi
5:54 AM47 °FLight rain. Mostly cloudy.5 mph100%29.76 "Hg10 mi
4:54 AM48 °FLight rain. Mostly cloudy.No wind96%29.79 "Hg8 mi
3:54 AM48 °FLight rain. Low clouds.No wind100%29.79 "Hg10 mi
2:54 AM48 °FLight rain. Low clouds.No wind100%29.78 "Hg10 mi
1:54 AM48 °FLow clouds.No wind100%29.79 "Hg10 mi
12:54 AM49 °FLow clouds.No wind97%29.80 "Hg10 mi
11:54 PM
Tue, May 3
50 °FLow clouds.No wind96%29.81 "Hg10 mi
10:54 PM50 °FLow clouds.3 mph100%29.81 "Hg10 mi
9:54 PM51 °FLow clouds.No wind100%29.83 "Hg10 mi
8:54 PM51 °FLow clouds.3 mph100%29.82 "Hg10 mi
7:54 PM52 °FFog.No wind97%29.82 "Hg6 mi
7:04 PM53 °FFog.No wind96%29.81 "Hg4 mi
5:54 PM53 °FMore clouds than sun.No wind96%29.80 "Hg7 mi
4:54 PM54 °FMostly cloudy.3 mph93%29.80 "Hg7 mi
3:54 PM54 °FLow clouds.5 mph93%29.79 "Hg10 mi
2:54 PM54 °FLow clouds.No wind90%29.81 "Hg10 mi
1:54 PM54 °FMostly cloudy.6 mph93%29.79 "Hg10 mi
12:54 PM53 °FMostly cloudy.No wind96%29.80 "Hg10 mi
11:54 AM52 °FCool.3 mph100%29.83 "Hg8 mi
Weather by CustomWeather, © 2016

See weather overviewHow to use our weather pages